DW9209 Weather Reports


time (UTC)temp
C
wind
direction
speed
KPH
gust
KPH
rain 1hr
cm
rain 24hr
cm
rain mn
cm
humidity
%
barometer
mb
20260509213011 21 223 3.2 0.0 0.00 0.00 0.00 61 1005.0
20260509211506 21 220 3.2 0.0 0.00 0.00 0.00 61 1005.0
20260509210002 21 196 1.6 0.0 0.00 0.00 0.00 61 1005.0
20260509204602 21 296 4.8 0.0 0.00 0.00 0.00 58 1005.0
20260509203059 21 208 8.0 0.0 0.00 0.00 0.00 59 1005.0
20260509201555 21 215 4.8 0.0 0.00 0.00 0.00 62 1005.1
20260509194554 21 142 8.0 0.0 0.00 0.00 0.00 59 1005.3
20260509193101 21 160 9.7 0.0 0.00 0.00 0.00 61 1005.4
20260509191610 21 186 6.4 0.0 0.00 0.00 0.00 62 1005.5
20260509190105 21 189 8.0 0.0 0.00 0.00 0.00 62 1005.8
20260509184548 20 155 6.4 0.0 0.00 0.00 0.00 61 1006.1
20260509183047 20 73 1.6 0.0 0.00 0.00 0.00 63 1006.0
20260509181544 20 139 3.2 0.0 0.00 0.00 0.00 61 1006.3
20260509180041 18 1 3.2 0.0 0.00 0.00 0.00 63 1006.7
20260509174540 18 58 1.6 0.0 0.00 0.00 0.00 60 1007.1
20260509173051 18 322 6.4 0.0 0.00 0.00 0.00 60 1007.3
20260509171542 18 359 3.2 0.0 0.00 0.00 0.00 57 1007.6
20260509170037 18 74 1.6 0.0 0.00 0.00 0.00 57 1007.7
20260509164528 18 89 4.8 0.0 0.00 0.00 0.00 57 1007.8
20260509163028 18 125 3.2 0.0 0.00 0.00 0.00 59 1007.4
20260509161521 17 35 4.8 0.0 0.00 0.00 0.00 60 1007.6
20260509160019 17 167 4.8 0.0 0.00 0.00 0.00 59 1007.7
20260509154512 17 107 4.8 0.0 0.00 0.00 0.00 61 1007.8
20260509153008 16 45 3.2 0.0 0.00 0.00 0.00 62 1007.8
20260509151503 16 98 1.6 0.0 0.00 0.00 0.00 65 1007.9
20260509150100 16 76 3.2 0.0 0.00 0.00 0.00 66 1007.9
20260509144555 15 166 1.6 0.0 0.00 0.00 0.00 66 1008.3
20260509143051 15 184 1.6 0.0 0.00 0.00 0.00 69 1008.4
20260509141549 14 167 3.2 0.0 0.00 0.00 0.00 69 1008.4
20260509140042 14 183 6.4 0.0 0.00 0.00 0.00 71 1008.4
20260509134551 13 147 1.6 0.0 0.00 0.00 0.00 70 1007.9
20260509133041 13 121 3.2 0.0 0.00 0.00 0.00 72 1008.0
20260509131556 13 146 4.8 0.0 0.00 0.00 0.00 69 1008.4
20260509130048 13 167 4.8 0.0 0.00 0.00 0.00 72 1008.3
20260509124542 13 118 4.8 0.0 0.00 0.00 0.00 72 1008.4
20260509123038 13 152 3.2 0.0 0.00 0.00 0.00 74 1008.4
20260509121532 12 105 3.2 0.0 0.00 0.00 0.00 73 1008.3
20260509120034 12 89 3.2 0.0 0.00 0.00 0.00 73 1008.2
20260509114529 12 150 0.0 0.0 0.00 0.00 0.00 71 1008.3
20260509113029 12 150 1.6 0.0 0.00 0.00 0.00 71 1007.9
20260509111528 12 249 4.8 0.0 0.00 0.00 0.00 71 1007.5
20260509110028 12 214 4.8 0.0 0.00 0.00 0.00 71 1007.3
20260509104527 11 214 4.8 0.0 0.00 0.00 0.00 73 1007.3
20260509103029 11 234 4.8 0.0 0.00 0.00 0.00 74 1007.3
20260509101525 11 208 3.2 0.0 0.00 0.00 0.00 73 1007.3
20260509100026 11 212 3.2 0.0 0.00 0.00 0.00 73 1007.3
20260509094522 11 214 3.2 0.0 0.00 0.00 0.00 70 1007.3
20260509093026 12 191 4.8 0.0 0.00 0.00 0.00 69 1007.5
20260509091523 12 209 3.2 0.0 0.00 0.00 0.00 68 1007.5
20260509090026 11 200 3.2 0.0 0.00 0.00 0.00 69 1007.5
20260509084520 11 197 3.2 0.0 0.00 0.00 0.00 69 1007.7
20260509083019 11 110 6.4 0.0 0.00 0.00 0.00 69 1007.7
20260509081534 11 130 3.2 0.0 0.00 0.00 0.00 70 1007.8
20260509080017 12 134 1.6 0.0 0.00 0.00 0.00 69 1007.8
20260509074517 12 173 3.2 0.0 0.00 0.00 0.00 68 1007.9
20260509073016 12 146 1.6 0.0 0.00 0.00 0.00 67 1007.9
20260509071514 12 196 1.6 0.0 0.00 0.00 0.00 67 1007.9
20260509070014 12 194 3.2 0.0 0.00 0.00 0.00 67 1007.8
20260509064513 11 194 3.2 0.0 0.00 0.00 0.00 69 1008.2
20260509063013 11 212 1.6 0.0 0.00 0.00 0.00 70 1008.2
20260509061511 11 210 1.6 0.0 0.00 0.00 0.00 70 1008.3
20260509060011 11 259 4.8 0.0 0.00 0.00 0.00 70 1008.3
20260509054520 11 233 4.8 0.0 0.00 0.00 0.00 71 1008.3
20260509053013 11 202 4.8 0.0 0.00 0.00 0.00 69 1008.4
20260509051504 11 192 4.8 0.0 0.00 0.00 0.00 67 1008.4
20260509050008 11 199 1.6 0.0 0.00 0.00 0.00 69 1008.4
20260509044501 11 181 4.8 0.0 0.00 0.00 0.00 68 1008.3
20260509043102 12 203 4.8 0.0 0.00 0.00 0.00 67 1008.4
20260509041600 12 188 4.8 0.0 0.00 0.00 0.00 66 1008.5
20260509040111 12 187 6.4 0.0 0.00 0.00 0.00 66 1008.5
20260509034609 12 182 4.8 0.0 0.00 0.00 0.00 65 1008.6
20260509033046 12 206 4.8 0.0 0.00 0.00 0.00 65 1008.8
20260509031541 12 221 6.4 0.0 0.00 0.00 0.00 64 1008.8
20260509030039 13 188 6.4 0.0 0.00 0.00 0.00 64 1008.8
20260509024533 13 177 6.4 0.0 0.00 0.00 0.00 61 1008.8
20260509023040 13 193 6.4 0.0 0.00 0.00 0.00 62 1008.8
20260509021522 13 168 6.4 0.0 0.00 0.00 0.00 61 1008.8
20260509020018 13 193 6.4 0.0 0.00 0.00 0.00 60 1008.9
20260509014514 14 179 4.8 0.0 0.00 0.00 0.00 59 1008.8
20260509013009 15 178 4.8 0.0 0.00 0.00 0.00 58 1008.8
20260509011505 15 184 3.2 0.0 0.00 0.00 0.00 55 1008.9
20260509010100 15 137 1.6 0.0 0.00 0.00 0.00 54 1008.8
20260509004604 16 101 1.6 0.0 0.00 0.00 0.00 52 1008.7
20260509003113 16 123 4.8 0.0 0.00 0.00 0.00 51 1008.6
20260509001549 17 82 4.8 0.0 0.00 0.00 0.00 50 1008.5
20260509000104 17 81 3.2 0.0 0.00 0.00 0.00 47 1008.5
20260508234545 17 184 0.0 0.0 0.00 0.00 0.00 46 1008.3
20260508233044 18 184 1.6 0.0 0.00 0.00 0.00 47 1008.2
20260508231547 18 183 3.2 0.0 0.00 0.00 0.00 46 1008.1
20260508230043 18 174 0.0 0.0 0.00 0.00 0.00 47 1008.3
20260508224545 18 174 1.6 0.0 0.00 0.00 0.00 44 1008.1
20260508223043 18 179 1.6 0.0 0.00 0.00 0.00 45 1008.1
20260508221541 19 190 1.6 0.0 0.00 0.00 0.00 48 1008.0
20260508220041 19 195 1.6 0.0 0.00 0.00 0.00 51 1008.1
20260508214540 20 274 3.2 0.0 0.00 0.00 0.00 50 1008.2